| time (UTC) | temp C | wind direction | speed KPH | gust KPH | rain 1hr cm | rain 24hr cm | rain mn cm | humidity % | barometer mb |
| 20260904071702 | 7 | 148 | 0.0 | 1.6 | 0.00 | 0.00 | 0.00 | 99 | 1009.0 |
| 20260904071157 | 7 | 155 | 3.2 | 4.8 | 0.00 | 0.00 | 0.00 | 99 | 1009.1 |
| 20260904070656 | 7 | 153 | 3.2 | 3.2 | 0.00 | 0.00 | 0.00 | 99 | 1008.8 |
| 20260904070155 | 7 | 154 | 1.6 | 1.6 | 0.00 | 0.00 | 0.00 | 99 | 1009.1 |
| 20260904065650 | 7 | 170 | 3.2 | 3.2 | 0.00 | 1.19 | 1.19 | 99 | 1009.0 |
| 20260904065147 | 7 | 148 | 0.0 | 0.0 | 0.00 | 1.19 | 1.19 | 99 | 1008.8 |
| 20260904064642 | 7 | 114 | 0.0 | 0.0 | 0.00 | 1.19 | 1.19 | 99 | 1009.0 |
| 20260904064137 | 7 | 114 | 0.0 | 0.0 | 0.00 | 1.19 | 1.19 | 99 | 1009.0 |
| 20260904063633 | 7 | 114 | 0.0 | 0.0 | 0.00 | 1.19 | 1.19 | 99 | 1008.7 |
| 20260904063128 | 7 | 114 | 0.0 | 0.0 | 0.00 | 1.19 | 1.19 | 99 | 1008.6 |
| 20260904062624 | 7 | 114 | 0.0 | 0.0 | 0.00 | 1.19 | 1.19 | 99 | 1008.4 |
| 20260904062120 | 7 | 113 | 0.0 | 0.0 | 0.00 | 1.19 | 1.19 | 99 | 1008.5 |
| 20260904061615 | 7 | 120 | 0.0 | 0.0 | 0.00 | 1.19 | 1.19 | 99 | 1008.6 |
| 20260904061112 | 7 | 118 | 0.0 | 0.0 | 0.00 | 1.19 | 1.19 | 99 | 1008.3 |
| 20260904060608 | 7 | 120 | 0.0 | 0.0 | 0.00 | 1.19 | 1.19 | 99 | 1008.5 |
| 20260904060103 | 7 | 148 | 0.0 | 0.0 | 0.00 | 1.19 | 1.19 | 99 | 1008.5 |
| 20260904055558 | 7 | 148 | 0.0 | 0.0 | 0.00 | 1.19 | 1.19 | 98 | 1008.7 |
| 20260904055053 | 7 | 147 | 0.0 | 0.0 | 0.00 | 1.19 | 1.19 | 98 | 1008.7 |
| 20260904054549 | 7 | 142 | 0.0 | 0.0 | 0.00 | 1.19 | 1.19 | 98 | 1009.1 |
| 20260904054045 | 7 | 125 | 0.0 | 0.0 | 0.00 | 1.19 | 1.19 | 98 | 1008.8 |
| 20260904053544 | 7 | 125 | 0.0 | 0.0 | 0.00 | 1.19 | 1.19 | 98 | 1008.6 |
| 20260904053040 | 7 | 123 | 0.0 | 0.0 | 0.00 | 1.19 | 1.19 | 98 | 1008.6 |
| 20260904052536 | 7 | 120 | 0.0 | 0.0 | 0.00 | 1.19 | 1.19 | 97 | 1008.6 |
| 20260904052031 | 8 | 130 | 0.0 | 0.0 | 0.00 | 1.19 | 1.19 | 97 | 1008.6 |
| 20260904051528 | 8 | 144 | 0.0 | 0.0 | 0.13 | 1.19 | 1.19 | 97 | 1008.6 |
| 20260904051027 | 8 | 139 | 0.0 | 0.0 | 0.13 | 1.19 | 1.19 | 97 | 1008.6 |
| 20260904050523 | 7 | 138 | 0.0 | 0.0 | 0.00 | 1.17 | 1.17 | 97 | 1008.6 |
| 20260904050019 | 7 | 139 | 0.0 | 0.0 | 0.00 | 1.17 | 1.17 | 96 | 1008.7 |
| 20260904045514 | 8 | 143 | 0.0 | 0.0 | 0.00 | 1.17 | 1.17 | 96 | 1009.0 |
| 20260904045009 | 8 | 145 | 0.0 | 0.0 | 0.00 | 1.17 | 1.17 | 96 | 1009.2 |
| 20260904044504 | 8 | 146 | 0.0 | 0.0 | 0.18 | 1.17 | 1.17 | 96 | 1009.2 |
| 20260904044001 | 8 | 173 | 0.0 | 0.0 | 0.00 | 1.14 | 1.14 | 96 | 1009.3 |
| 20260904043457 | 8 | 154 | 3.2 | 3.2 | 0.13 | 1.14 | 1.14 | 96 | 1009.0 |
| 20260904042952 | 8 | 141 | 0.0 | 1.6 | 0.13 | 1.14 | 1.14 | 96 | 1009.2 |
| 20260904042448 | 8 | 135 | 0.0 | 0.0 | 0.18 | 1.12 | 1.12 | 95 | 1009.1 |
| 20260904041942 | 8 | 138 | 0.0 | 0.0 | 0.18 | 1.12 | 1.12 | 95 | 1009.3 |
| 20260904041434 | 8 | 138 | 0.0 | 0.0 | 0.13 | 1.09 | 1.09 | 95 | 1009.2 |
| 20260904040930 | 8 | 146 | 0.0 | 0.0 | 0.30 | 1.09 | 1.09 | 95 | 1009.3 |
| 20260904040429 | 8 | 141 | 0.0 | 0.0 | 0.48 | 1.07 | 1.07 | 95 | 1009.4 |
| 20260904035926 | 8 | 141 | 0.0 | 0.0 | 0.30 | 1.04 | 1.04 | 94 | 1009.3 |
| 20260904035421 | 8 | 141 | 0.0 | 0.0 | 0.30 | 1.02 | 1.02 | 94 | 1009.3 |
| 20260904034920 | 8 | 143 | 0.0 | 0.0 | 0.30 | 0.99 | 0.99 | 94 | 1009.0 |
| 20260904034416 | 8 | 144 | 0.0 | 0.0 | 0.36 | 0.97 | 0.97 | 94 | 1009.2 |
| 20260904033912 | 8 | 144 | 0.0 | 0.0 | 0.30 | 0.94 | 0.94 | 93 | 1009.3 |
| 20260904033408 | 8 | 166 | 0.0 | 0.0 | 0.30 | 0.91 | 0.91 | 94 | 1009.2 |
| 20260904032903 | 8 | 146 | 0.0 | 0.0 | 0.30 | 0.89 | 0.89 | 94 | 1009.4 |
| 20260904032358 | 8 | 259 | 3.2 | 3.2 | 0.13 | 0.86 | 0.86 | 94 | 1009.4 |
| 20260904031852 | 8 | 147 | 0.0 | 0.0 | 0.18 | 0.84 | 0.84 | 93 | 1009.3 |
| 20260904031348 | 8 | 146 | 0.0 | 0.0 | 0.30 | 0.84 | 0.84 | 93 | 1009.1 |
| 20260904030844 | 8 | 140 | 0.0 | 0.0 | 0.13 | 0.81 | 0.81 | 92 | 1009.2 |
| 20260904030339 | 8 | 140 | 0.0 | 0.0 | 0.18 | 0.79 | 0.79 | 92 | 1009.0 |
| 20260904025835 | 8 | 140 | 0.0 | 0.0 | 0.18 | 0.79 | 0.79 | 92 | 1009.1 |
| 20260904025330 | 8 | 140 | 0.0 | 0.0 | 0.13 | 0.76 | 0.76 | 91 | 1009.1 |
| 20260904024830 | 8 | 137 | 0.0 | 0.0 | 0.13 | 0.76 | 0.76 | 90 | 1009.0 |
| 20260904024325 | 8 | 142 | 0.0 | 0.0 | 0.18 | 0.74 | 0.74 | 91 | 1009.0 |
| 20260904023822 | 8 | 145 | 0.0 | 0.0 | 0.18 | 0.74 | 0.74 | 90 | 1008.7 |
| 20260904023318 | 8 | 163 | 6.4 | 6.4 | 0.13 | 0.71 | 0.71 | 90 | 1008.7 |
| 20260904022817 | 9 | 155 | 3.2 | 3.2 | 0.13 | 0.71 | 0.71 | 89 | 1009.0 |
| 20260904022314 | 9 | 165 | 1.6 | 1.6 | 0.18 | 0.69 | 0.69 | 88 | 1009.1 |
| 20260904021811 | 9 | 86 | 1.6 | 3.2 | 0.18 | 0.69 | 0.69 | 88 | 1008.8 |
| 20260904021310 | 9 | 105 | 1.6 | 1.6 | 0.13 | 0.66 | 0.66 | 88 | 1008.6 |
| 20260904020805 | 10 | 118 | 0.0 | 0.0 | 0.13 | 0.66 | 0.66 | 86 | 1008.7 |
| 20260904020301 | 10 | 83 | 1.6 | 1.6 | 0.18 | 0.64 | 0.64 | 84 | 1008.7 |
| 20260904015759 | 10 | 150 | 1.6 | 1.6 | 0.18 | 0.64 | 0.64 | 86 | 1008.5 |
| 20260904015254 | 10 | 166 | 1.6 | 1.6 | 0.18 | 0.61 | 0.61 | 84 | 1008.6 |
| 20260904014752 | 10 | 136 | 0.0 | 0.0 | 0.18 | 0.61 | 0.61 | 84 | 1008.5 |
| 20260904014248 | 10 | 147 | 0.0 | 0.0 | 0.00 | 0.58 | 0.58 | 84 | 1008.5 |
| 20260904013744 | 10 | 137 | 0.0 | 0.0 | 0.00 | 0.58 | 0.58 | 81 | 1008.4 |
| 20260904013240 | 10 | 129 | 0.0 | 0.0 | 0.13 | 0.58 | 0.58 | 78 | 1008.5 |
| 20260904012736 | 10 | 129 | 0.0 | 0.0 | 0.13 | 0.58 | 0.58 | 78 | 1008.5 |
| 20260904012235 | 10 | 147 | 0.0 | 0.0 | 0.13 | 0.58 | 0.58 | 78 | 1008.3 |
| 20260904011734 | 11 | 130 | 0.0 | 0.0 | 0.13 | 0.58 | 0.58 | 78 | 1008.3 |
| 20260904011230 | 11 | 144 | 1.6 | 1.6 | 0.00 | 0.56 | 0.56 | 78 | 1008.3 |
| 20260904010725 | 11 | 142 | 0.0 | 0.0 | 0.00 | 0.56 | 0.56 | 78 | 1008.2 |
| 20260904010221 | 11 | 146 | 0.0 | 1.6 | 0.00 | 0.56 | 0.56 | 76 | 1008.3 |
| 20260904005716 | 11 | 166 | 4.8 | 6.4 | 0.00 | 0.56 | 0.56 | 71 | 1008.3 |
| 20260904005212 | 12 | 153 | 3.2 | 4.8 | 0.00 | 0.56 | 0.56 | 71 | 1008.2 |
| 20260904004712 | 12 | 137 | 3.2 | 4.8 | 0.00 | 0.56 | 0.56 | 70 | 1008.2 |
| 20260904004208 | 12 | 171 | 4.8 | 4.8 | 0.00 | 0.56 | 0.56 | 70 | 1008.3 |
| 20260904003702 | 12 | 147 | 1.6 | 1.6 | 0.00 | 0.56 | 0.56 | 72 | 1008.2 |
| 20260904003158 | 12 | 166 | 6.4 | 9.7 | 0.00 | 0.56 | 0.56 | 71 | 1007.9 |
| 20260904002649 | 12 | 136 | 6.4 | 11.3 | 0.00 | 0.56 | 0.56 | 71 | 1008.0 |
| 20260904002143 | 12 | 136 | 4.8 | 4.8 | 0.00 | 0.56 | 0.56 | 72 | 1007.7 |
| 20260904001638 | 12 | 166 | 6.4 | 6.4 | 0.00 | 0.56 | 0.56 | 71 | 1007.7 |
| 20260904001137 | 12 | 186 | 6.4 | 6.4 | 0.00 | 0.56 | 0.56 | 70 | 1007.8 |
| 20260904000633 | 12 | 144 | 6.4 | 9.7 | 0.00 | 0.56 | 0.56 | 70 | 1007.8 |
| 20260904000129 | 12 | 151 | 3.2 | 3.2 | 0.00 | 0.56 | 0.56 | 70 | 1007.8 |
| 20260903235628 | 13 | 145 | 3.2 | 4.8 | 0.00 | 0.56 | 0.56 | 65 | 1007.9 |
| 20260903235124 | 13 | 165 | 4.8 | 6.4 | 0.00 | 0.56 | 0.56 | 60 | 1008.0 |
| 20260903234619 | 13 | 166 | 9.7 | 11.3 | 0.00 | 0.56 | 0.56 | 58 | 1008.0 |
| 20260903234115 | 13 | 200 | 22.5 | 24.1 | 0.00 | 0.56 | 0.56 | 59 | 1007.7 |
| 20260903233611 | 13 | 153 | 4.8 | 4.8 | 0.00 | 0.56 | 0.56 | 62 | 1007.8 |
| 20260903233106 | 13 | 176 | 8.0 | 12.9 | 0.00 | 0.56 | 0.56 | 63 | 1007.8 |
| 20260903232601 | 12 | 147 | 6.4 | 11.3 | 0.00 | 0.56 | 0.56 | 65 | 1007.8 |
| 20260903232057 | 13 | 164 | 6.4 | 11.3 | 0.00 | 0.56 | 0.56 | 68 | 1007.8 |
| 20260903231551 | 13 | 120 | 9.7 | 11.3 | 0.00 | 0.56 | 0.56 | 66 | 1007.5 |
| 20260903231045 | 13 | 106 | 4.8 | 9.7 | 0.00 | 0.56 | 0.56 | 64 | 1007.4 |
| 20260903230542 | 13 | 159 | 6.4 | 6.4 | 0.00 | 0.56 | 0.56 | 60 | 1007.8 |
| 20260903230040 | 15 | 162 | 4.8 | 4.8 | 0.00 | 0.56 | 0.56 | 59 | 1007.7 |
| 20260903225538 | 15 | 142 | 1.6 | 4.8 | 0.00 | 0.56 | 0.56 | 59 | 1007.8 |
| 20260903225034 | 15 | 169 | 3.2 | 3.2 | 0.00 | 0.56 | 0.56 | 68 | 1007.8 |
| 20260903224530 | 15 | 168 | 0.0 | 1.6 | 0.00 | 0.56 | 0.56 | 72 | 1008.0 |
| 20260903224026 | 15 | 131 | 3.2 | 3.2 | 0.00 | 0.56 | 0.56 | 73 | 1007.9 |
| 20260903223525 | 15 | 134 | 3.2 | 3.2 | 0.00 | 0.56 | 0.56 | 73 | 1007.5 |
| 20260903223024 | 15 | 137 | 1.6 | 3.2 | 0.00 | 0.56 | 0.56 | 73 | 1007.8 |
| 20260903222519 | 15 | 169 | 0.0 | 0.0 | 0.00 | 0.56 | 0.56 | 71 | 1008.2 |
| 20260903222018 | 15 | 144 | 0.0 | 0.0 | 0.00 | 0.56 | 0.56 | 72 | 1008.1 |
| 20260903221514 | 15 | 144 | 1.6 | 1.6 | 0.00 | 0.56 | 0.56 | 70 | 1008.0 |
| 20260903221010 | 15 | 177 | 3.2 | 4.8 | 0.00 | 0.56 | 0.56 | 69 | 1007.9 |
| 20260903220504 | 15 | 152 | 0.0 | 1.6 | 0.00 | 0.56 | 0.56 | 69 | 1008.1 |
| 20260903220001 | 15 | 126 | 1.6 | 3.2 | 0.00 | 0.56 | 0.56 | 70 | 1007.8 |
| 20260903215459 | 15 | 145 | 1.6 | 1.6 | 0.00 | 0.56 | 0.56 | 69 | 1007.9 |
| 20260903214957 | 15 | 155 | 0.0 | 1.6 | 0.00 | 0.56 | 0.56 | 69 | 1007.7 |
| 20260903214452 | 15 | 151 | 0.0 | 0.0 | 0.00 | 0.56 | 0.56 | 71 | 1007.2 |
| 20260903213947 | 15 | 127 | 1.6 | 3.2 | 0.00 | 0.56 | 0.56 | 68 | 1007.3 |
| 20260903213443 | 16 | 120 | 0.0 | 0.0 | 0.00 | 0.56 | 0.56 | 63 | 1008.1 |
| 20260903212938 | 16 | 7 | 1.6 | 3.2 | 0.00 | 0.56 | 0.56 | 62 | 1008.1 |
| 20260903212434 | 16 | 117 | 0.0 | 0.0 | 0.00 | 0.56 | 0.56 | 63 | 1008.0 |
| 20260903211934 | 16 | 143 | 0.0 | 0.0 | 0.00 | 0.56 | 0.56 | 63 | 1008.0 |
| 20260903211429 | 16 | 137 | 0.0 | 0.0 | 0.00 | 0.56 | 0.56 | 63 | 1008.2 |
| 20260903210926 | 16 | 137 | 0.0 | 0.0 | 0.00 | 0.56 | 0.56 | 63 | 1008.2 |
| 20260903210425 | 16 | 147 | 1.6 | 1.6 | 0.00 | 0.56 | 0.56 | 66 | 1008.2 |
| 20260903205920 | 16 | 176 | 0.0 | 0.0 | 0.00 | 0.56 | 0.56 | 63 | 1008.0 |
| 20260903205420 | 15 | 142 | 0.0 | 0.0 | 0.00 | 0.56 | 0.56 | 64 | 1007.9 |
| 20260903204915 | 15 | 153 | 0.0 | 0.0 | 0.00 | 0.56 | 0.56 | 66 | 1007.9 |
| 20260903204411 | 15 | 145 | 0.0 | 0.0 | 0.00 | 0.56 | 0.56 | 66 | 1008.0 |
| 20260903203907 | 15 | 138 | 0.0 | 0.0 | 0.00 | 0.56 | 0.56 | 63 | 1008.1 |
| 20260903203402 | 15 | 158 | 0.0 | 0.0 | 0.00 | 0.56 | 0.56 | 62 | 1008.1 |
| 20260903202901 | 15 | 253 | 3.2 | 3.2 | 0.00 | 0.56 | 0.56 | 62 | 1007.9 |
| 20260903202358 | 15 | 259 | 3.2 | 3.2 | 0.00 | 0.56 | 0.56 | 61 | 1008.1 |
| 20260903201857 | 16 | 153 | 3.2 | 3.2 | 0.00 | 0.56 | 0.56 | 61 | 1008.0 |
| 20260903201353 | 15 | 195 | 1.6 | 3.2 | 0.00 | 0.56 | 0.56 | 63 | 1008.5 |
| 20260903200851 | 15 | 230 | 3.2 | 3.2 | 0.00 | 0.56 | 0.56 | 61 | 1008.4 |
| 20260903200347 | 15 | 144 | 0.0 | 0.0 | 0.00 | 0.56 | 0.56 | 60 | 1008.7 |
| 20260903195842 | 15 | 144 | 0.0 | 0.0 | 0.00 | 0.56 | 0.56 | 62 | 1008.6 |
| 20260903195338 | 16 | 213 | 6.4 | 9.7 | 0.00 | 0.56 | 0.56 | 59 | 1008.6 |
| 20260903194832 | 16 | 144 | 1.6 | 3.2 | 0.00 | 0.56 | 0.56 | 59 | 1008.6 |
| 20260903194328 | 16 | 129 | 3.2 | 3.2 | 0.00 | 0.56 | 0.56 | 58 | 1008.5 |
| 20260903193824 | 16 | 272 | 4.8 | 6.4 | 0.00 | 0.56 | 0.56 | 58 | 1008.5 |
| 20260903193320 | 16 | 126 | 3.2 | 4.8 | 0.00 | 0.56 | 0.56 | 59 | 1008.4 |
| 20260903192815 | 16 | 156 | 1.6 | 1.6 | 0.00 | 0.56 | 0.56 | 63 | 1008.5 |
| 20260903192310 | 15 | 154 | 1.6 | 1.6 | 0.00 | 0.56 | 0.56 | 62 | 1008.6 |
| 20260903191807 | 15 | 172 | 3.2 | 6.4 | 0.00 | 0.56 | 0.56 | 63 | 1008.7 |
| 20260903191302 | 15 | 172 | 6.4 | 6.4 | 0.00 | 0.56 | 0.56 | 62 | 1008.7 |
| 20260903190756 | 16 | 138 | 4.8 | 6.4 | 0.00 | 0.56 | 0.56 | 61 | 1008.7 |
| 20260903190251 | 16 | 196 | 1.6 | 3.2 | 0.00 | 0.56 | 0.56 | 60 | 1008.8 |
| 20260903185750 | 16 | 148 | 3.2 | 3.2 | 0.00 | 0.56 | 0.56 | 60 | 1008.8 |
| 20260903185245 | 16 | 150 | 0.0 | 0.0 | 0.00 | 0.56 | 0.56 | 58 | 1008.8 |
| 20260903184742 | 16 | 159 | 9.7 | 11.3 | 0.00 | 0.56 | 0.56 | 58 | 1008.8 |
| 20260903184237 | 15 | 144 | 1.6 | 1.6 | 0.00 | 0.56 | 0.56 | 62 | 1008.8 |
| 20260903183733 | 15 | 138 | 3.2 | 3.2 | 0.00 | 0.56 | 0.56 | 60 | 1009.1 |
| 20260903183227 | 15 | 149 | 6.4 | 6.4 | 0.00 | 0.56 | 0.56 | 64 | 1009.2 |
| 20260903182726 | 15 | 187 | 1.6 | 3.2 | 0.00 | 0.56 | 0.56 | 65 | 1009.2 |
| 20260903182221 | 15 | 200 | 6.4 | 9.7 | 0.00 | 0.56 | 0.56 | 66 | 1009.5 |
| 20260903181720 | 15 | 211 | 3.2 | 3.2 | 0.00 | 0.56 | 0.56 | 64 | 1009.2 |
| 20260903181215 | 15 | 145 | 4.8 | 4.8 | 0.00 | 0.56 | 0.56 | 67 | 1009.2 |
| 20260903180710 | 14 | 126 | 0.0 | 0.0 | 0.00 | 0.56 | 0.56 | 69 | 1009.4 |
| 20260903180204 | 15 | 178 | 3.2 | 3.2 | 0.00 | 0.56 | 0.56 | 67 | 1009.5 |
| 20260903175703 | 14 | 138 | 0.0 | 0.0 | 0.00 | 0.56 | 0.56 | 69 | 1009.2 |
| 20260903175202 | 14 | 133 | 0.0 | 0.0 | 0.00 | 0.56 | 0.56 | 71 | 1009.4 |
| 20260903174657 | 13 | 128 | 0.0 | 0.0 | 0.00 | 0.56 | 0.56 | 71 | 1009.4 |
| 20260903174151 | 13 | 120 | 1.6 | 1.6 | 0.00 | 0.56 | 0.56 | 73 | 1009.3 |
| 20260903173647 | 13 | 110 | 1.6 | 1.6 | 0.00 | 0.56 | 0.56 | 72 | 1009.3 |
| 20260903173143 | 14 | 88 | 1.6 | 1.6 | 0.00 | 0.56 | 0.56 | 72 | 1009.3 |
| 20260903172638 | 14 | 143 | 0.0 | 0.0 | 0.00 | 0.56 | 0.56 | 71 | 1009.4 |
| 20260903172133 | 15 | 312 | 6.4 | 6.4 | 0.00 | 0.56 | 0.56 | 72 | 1009.3 |
| 20260903171632 | 15 | 140 | 3.2 | 3.2 | 0.00 | 0.56 | 0.56 | 73 | 1009.3 |
| 20260903171129 | 15 | 28 | 4.8 | 4.8 | 0.00 | 0.56 | 0.56 | 70 | 1009.4 |
| 20260903170627 | 15 | 126 | 0.0 | 0.0 | 0.00 | 0.56 | 0.56 | 70 | 1009.6 |
| 20260903170123 | 14 | 138 | 0.0 | 0.0 | 0.00 | 0.56 | 0.56 | 73 | 1009.5 |
| 20260903165621 | 14 | 121 | 0.0 | 0.0 | 0.00 | 0.56 | 0.56 | 73 | 1009.5 |
| 20260903165116 | 14 | 187 | 3.2 | 3.2 | 0.00 | 0.56 | 0.56 | 73 | 1009.6 |
| 20260903164611 | 13 | 122 | 0.0 | 0.0 | 0.00 | 0.56 | 0.56 | 76 | 1009.4 |
| 20260903164106 | 13 | 89 | 3.2 | 3.2 | 0.00 | 0.56 | 0.56 | 77 | 1009.5 |
| 20260903163601 | 13 | 184 | 0.0 | 0.0 | 0.00 | 0.56 | 0.56 | 76 | 1009.7 |
| 20260903163057 | 13 | 84 | 1.6 | 1.6 | 0.00 | 0.56 | 0.56 | 76 | 1009.5 |
| 20260903162553 | 15 | 125 | 0.0 | 0.0 | 0.00 | 0.56 | 0.56 | 73 | 1009.5 |
| 20260903162049 | 14 | 126 | 1.6 | 1.6 | 0.00 | 0.56 | 0.56 | 71 | 1009.8 |
| 20260903161544 | 14 | 127 | 0.0 | 0.0 | 0.00 | 0.56 | 0.56 | 77 | 1009.5 |
| 20260903161040 | 14 | 142 | 0.0 | 0.0 | 0.00 | 0.56 | 0.56 | 79 | 1009.7 |
| 20260903160538 | 13 | 150 | 0.0 | 1.6 | 0.00 | 0.56 | 0.56 | 80 | 1009.4 |
| 20260903160033 | 13 | 109 | 0.0 | 0.0 | 0.00 | 0.56 | 0.56 | 81 | 1009.8 |
| 20260903155532 | 13 | 89 | 4.8 | 4.8 | 0.00 | 0.56 | 0.56 | 82 | 1009.6 |
| 20260903155028 | 12 | 140 | 0.0 | 0.0 | 0.00 | 0.56 | 0.56 | 89 | 1009.8 |
| 20260903154524 | 11 | 97 | 1.6 | 3.2 | 0.00 | 0.56 | 0.56 | 94 | 1009.6 |
| 20260903154020 | 11 | 90 | 3.2 | 4.8 | 0.00 | 0.56 | 0.56 | 98 | 1009.5 |
| 20260903153515 | 11 | 146 | 0.0 | 0.0 | 0.00 | 0.56 | 0.56 | 99 | 1009.9 |
| 20260903153011 | 11 | 147 | 0.0 | 0.0 | 0.00 | 0.56 | 0.56 | 99 | 1009.7 |
| 20260903152506 | 11 | 150 | 0.0 | 0.0 | 0.00 | 0.56 | 0.56 | 99 | 1010.0 |
| 20260903152002 | 10 | 150 | 0.0 | 0.0 | 0.00 | 0.56 | 0.56 | 99 | 1009.9 |
| 20260903151456 | 10 | 151 | 0.0 | 0.0 | 0.00 | 0.56 | 0.56 | 99 | 1010.0 |
| 20260903150952 | 10 | 144 | 0.0 | 0.0 | 0.00 | 0.56 | 0.56 | 99 | 1009.9 |
| 20260903150451 | 10 | 115 | 0.0 | 0.0 | 0.00 | 0.56 | 0.56 | 99 | 1009.9 |
| 20260903145946 | 10 | 114 | 0.0 | 0.0 | 0.00 | 0.56 | 0.56 | 99 | 1009.9 |
| 20260903145441 | 10 | 130 | 0.0 | 0.0 | 0.00 | 0.56 | 0.56 | 99 | 1009.8 |
| 20260903144936 | 10 | 131 | 0.0 | 0.0 | 0.00 | 0.56 | 0.56 | 99 | 1009.5 |
| 20260903144435 | 10 | 179 | 0.0 | 0.0 | 0.00 | 0.56 | 0.56 | 99 | 1009.6 |
| 20260903143931 | 10 | 151 | 0.0 | 0.0 | 0.00 | 0.56 | 0.56 | 99 | 1009.7 |
| 20260903143428 | 10 | 144 | 0.0 | 0.0 | 0.00 | 0.56 | 0.56 | 99 | 1009.3 |
| 20260903142923 | 10 | 144 | 0.0 | 0.0 | 0.00 | 0.56 | 0.56 | 99 | 1009.6 |
| 20260903142419 | 10 | 145 | 0.0 | 0.0 | 0.00 | 0.56 | 0.56 | 99 | 1009.6 |
| 20260903141915 | 10 | 147 | 0.0 | 0.0 | 0.00 | 0.56 | 0.56 | 99 | 1009.5 |
| 20260903141410 | 10 | 149 | 0.0 | 0.0 | 0.00 | 0.56 | 0.56 | 99 | 1009.5 |
| 20260903140906 | 10 | 140 | 0.0 | 0.0 | 0.00 | 0.56 | 0.56 | 99 | 1009.5 |
| 20260903140400 | 9 | 147 | 0.0 | 0.0 | 0.00 | 0.56 | 0.56 | 99 | 1009.4 |
| 20260903135856 | 9 | 146 | 0.0 | 0.0 | 0.00 | 0.56 | 0.56 | 99 | 1009.4 |
| 20260903135346 | 9 | 111 | 0.0 | 0.0 | 0.00 | 0.56 | 0.56 | 99 | 1009.5 |
| 20260903134844 | 9 | 112 | 0.0 | 0.0 | 0.00 | 0.56 | 0.56 | 99 | 1009.4 |
| 20260903134340 | 9 | 112 | 0.0 | 0.0 | 0.00 | 0.56 | 0.56 | 99 | 1009.3 |
| 20260903133837 | 9 | 112 | 0.0 | 0.0 | 0.00 | 0.56 | 0.56 | 99 | 1009.1 |
| 20260903133334 | 9 | 112 | 0.0 | 0.0 | 0.00 | 0.56 | 0.56 | 99 | 1009.3 |
| 20260903132828 | 9 | 112 | 0.0 | 0.0 | 0.00 | 0.56 | 0.56 | 99 | 1009.4 |
| 20260903132324 | 9 | 112 | 0.0 | 0.0 | 0.00 | 0.56 | 0.56 | 99 | 1009.3 |
| 20260903131819 | 9 | 112 | 0.0 | 0.0 | 0.00 | 0.56 | 0.56 | 99 | 1009.1 |
| 20260903131318 | 9 | 112 | 0.0 | 0.0 | 0.00 | 0.56 | 0.56 | 99 | 1009.1 |
| 20260903130812 | 9 | 112 | 0.0 | 0.0 | 0.00 | 0.56 | 0.56 | 99 | 1009.0 |
| 20260903130313 | 9 | 112 | 0.0 | 0.0 | 0.00 | 0.56 | 0.56 | 99 | 1009.0 |
| 20260903125811 | 9 | 111 | 0.0 | 0.0 | 0.00 | 0.56 | 0.56 | 99 | 1008.8 |
| 20260903125307 | 9 | 111 | 0.0 | 0.0 | 0.00 | 0.56 | 0.56 | 99 | 1008.5 |
| 20260903124806 | 10 | 111 | 0.0 | 0.0 | 0.00 | 0.56 | 0.56 | 99 | 1008.7 |
| 20260903124301 | 10 | 111 | 0.0 | 0.0 | 0.00 | 0.56 | 0.56 | 99 | 1008.8 |
| 20260903123800 | 10 | 113 | 0.0 | 0.0 | 0.00 | 0.56 | 0.56 | 99 | 1008.7 |
| 20260903123259 | 10 | 122 | 0.0 | 0.0 | 0.00 | 0.56 | 0.56 | 99 | 1008.6 |
| 20260903122758 | 10 | 151 | 0.0 | 0.0 | 0.00 | 0.56 | 0.56 | 99 | 1008.6 |
| 20260903122253 | 10 | 151 | 0.0 | 0.0 | 0.00 | 0.56 | 0.56 | 99 | 1008.6 |
| 20260903121751 | 10 | 151 | 0.0 | 0.0 | 0.00 | 0.56 | 0.56 | 99 | 1008.5 |
| 20260903121247 | 10 | 152 | 0.0 | 0.0 | 0.00 | 0.56 | 0.56 | 99 | 1008.6 |
| 20260903120742 | 10 | 152 | 0.0 | 0.0 | 0.00 | 0.56 | 0.56 | 99 | 1008.6 |
| 20260903120236 | 10 | 152 | 0.0 | 0.0 | 0.00 | 0.56 | 0.56 | 99 | 1008.6 |
| 20260903115735 | 10 | 152 | 0.0 | 0.0 | 0.18 | 0.56 | 0.56 | 99 | 1008.6 |
| 20260903115230 | 10 | 152 | 0.0 | 0.0 | 0.18 | 0.56 | 0.56 | 99 | 1008.6 |
| 20260903114724 | 10 | 152 | 0.0 | 0.0 | 0.00 | 0.53 | 0.53 | 99 | 1008.7 |
| 20260903114220 | 10 | 152 | 0.0 | 0.0 | 0.13 | 0.53 | 0.53 | 99 | 1008.6 |
| 20260903113715 | 10 | 153 | 0.0 | 0.0 | 0.13 | 0.53 | 0.53 | 99 | 1009.0 |
| 20260903113211 | 10 | 153 | 0.0 | 0.0 | 0.18 | 0.51 | 0.51 | 99 | 1008.5 |
| 20260903112707 | 10 | 154 | 0.0 | 0.0 | 0.18 | 0.51 | 0.51 | 99 | 1008.6 |
| 20260903112203 | 10 | 150 | 0.0 | 0.0 | 0.13 | 0.48 | 0.48 | 99 | 1008.5 |
| 20260903111701 | 10 | 149 | 0.0 | 0.0 | 0.30 | 0.48 | 0.48 | 99 | 1008.5 |
| 20260903111156 | 10 | 142 | 0.0 | 0.0 | 0.30 | 0.46 | 0.46 | 99 | 1008.5 |
| 20260903110653 | 10 | 141 | 0.0 | 0.0 | 0.43 | 0.43 | 0.43 | 99 | 1008.5 |
| 20260903110148 | 10 | 152 | 0.0 | 0.0 | 0.30 | 0.41 | 0.41 | 99 | 1008.4 |
| 20260903105642 | 10 | 153 | 0.0 | 0.0 | 0.18 | 0.36 | 0.36 | 99 | 1008.4 |
| 20260903105137 | 10 | 149 | 1.6 | 1.6 | 0.18 | 0.36 | 0.36 | 99 | 1008.6 |
| 20260903104637 | 10 | 182 | 3.2 | 4.8 | 0.13 | 0.33 | 0.33 | 99 | 1008.2 |
| 20260903104133 | 10 | 156 | 1.6 | 1.6 | 0.13 | 0.33 | 0.33 | 99 | 1008.3 |
| 20260903103628 | 10 | 147 | 1.6 | 1.6 | 0.18 | 0.30 | 0.30 | 99 | 1008.0 |
| 20260903103124 | 10 | 155 | 1.6 | 1.6 | 0.18 | 0.30 | 0.30 | 99 | 1008.0 |
| 20260903102620 | 10 | 150 | 1.6 | 3.2 | 0.00 | 0.28 | 0.28 | 99 | 1008.0 |
| 20260903102118 | 10 | 161 | 3.2 | 3.2 | 0.18 | 0.28 | 0.28 | 99 | 1008.3 |
| 20260903101613 | 10 | 147 | 0.0 | 0.0 | 0.18 | 0.28 | 0.28 | 99 | 1008.1 |
| 20260903101108 | 10 | 151 | 1.6 | 1.6 | 0.00 | 0.25 | 0.25 | 99 | 1008.1 |
| 20260903100603 | 10 | 156 | 0.0 | 1.6 | 0.00 | 0.25 | 0.25 | 99 | 1007.8 |
| 20260903095600 | 10 | 161 | 0.0 | 0.0 | 0.13 | 0.25 | 0.25 | 99 | 1007.9 |
| 20260903095055 | 10 | 149 | 0.0 | 0.0 | 0.13 | 0.25 | 0.25 | 99 | 1007.9 |
| 20260903094555 | 10 | 150 | 0.0 | 0.0 | 0.00 | 0.23 | 0.23 | 99 | 1008.2 |
| 20260903094050 | 10 | 154 | 0.0 | 0.0 | 0.18 | 0.23 | 0.23 | 99 | 1007.9 |
| 20260903093550 | 10 | 152 | 0.0 | 0.0 | 0.48 | 0.23 | 0.23 | 99 | 1007.8 |
| 20260903093046 | 11 | 152 | 1.6 | 1.6 | 0.30 | 0.20 | 0.20 | 99 | 1007.7 |
| 20260903092545 | 11 | 148 | 0.0 | 0.0 | 0.30 | 0.18 | 0.18 | 99 | 1007.9 |
| 20260903092040 | 11 | 145 | 1.6 | 1.6 | 0.30 | 0.15 | 0.15 | 99 | 1007.7 |
| 20260903091538 | 11 | 138 | 0.0 | 0.0 | 0.18 | 0.13 | 0.13 | 99 | 1007.7 |
| 20260903091033 | 11 | 152 | 0.0 | 0.0 | 0.00 | 0.10 | 0.10 | 99 | 1007.8 |
| 20260903090529 | 11 | 154 | 0.0 | 0.0 | 0.00 | 0.10 | 0.10 | 99 | 1007.8 |
| 20260903090028 | 11 | 120 | 0.0 | 0.0 | 0.13 | 0.10 | 0.10 | 99 | 1007.5 |
| 20260903085526 | 11 | 123 | 0.0 | 0.0 | 0.13 | 0.10 | 0.10 | 99 | 1007.8 |
| 20260903085022 | 11 | 123 | 0.0 | 0.0 | 0.18 | 0.08 | 0.08 | 99 | 1007.5 |
| 20260903084520 | 11 | 124 | 0.0 | 0.0 | 0.18 | 0.08 | 0.08 | 99 | 1007.8 |
| 20260903084015 | 11 | 124 | 0.0 | 0.0 | 0.00 | 0.05 | 0.05 | 99 | 1007.5 |
| 20260903083511 | 11 | 117 | 0.0 | 0.0 | 0.00 | 0.05 | 0.05 | 99 | 1007.4 |
| 20260903083010 | 11 | 118 | 0.0 | 0.0 | 0.00 | 0.05 | 0.05 | 99 | 1007.7 |
| 20260903082505 | 11 | 118 | 0.0 | 0.0 | 0.00 | 0.05 | 0.05 | 99 | 1007.8 |
| 20260903082000 | 11 | 117 | 0.0 | 0.0 | 0.00 | 0.05 | 0.05 | 99 | 1007.4 |
| 20260903081455 | 11 | 133 | 0.0 | 0.0 | 0.00 | 0.05 | 0.05 | 99 | 1007.7 |
| 20260903080952 | 11 | 140 | 0.0 | 0.0 | 0.00 | 0.05 | 0.05 | 98 | 1007.5 |
| 20260903080447 | 11 | 150 | 0.0 | 0.0 | 0.00 | 0.05 | 0.05 | 98 | 1007.5 |
| 20260903075943 | 11 | 128 | 0.0 | 0.0 | 0.00 | 0.05 | 0.05 | 98 | 1007.4 |
| 20260903075438 | 11 | 128 | 0.0 | 0.0 | 0.00 | 0.05 | 0.05 | 98 | 1007.4 |
| 20260903074933 | 11 | 128 | 0.0 | 0.0 | 0.13 | 0.05 | 0.05 | 98 | 1007.8 |
| 20260903074432 | 11 | 128 | 0.0 | 0.0 | 0.13 | 0.05 | 0.05 | 97 | 1007.4 |
| 20260903073928 | 11 | 128 | 0.0 | 0.0 | 0.00 | 0.03 | 0.03 | 97 | 1007.8 |
| 20260903073423 | 11 | 128 | 0.0 | 0.0 | 0.00 | 0.03 | 0.03 | 97 | 1007.8 |
| 20260903072919 | 11 | 118 | 0.0 | 0.0 | 0.18 | 0.03 | 0.03 | 97 | 1007.7 |
| 20260903072414 | 11 | 128 | 0.0 | 0.0 | 0.18 | 0.03 | 0.03 | 97 | 1007.5 |